Current Version              Previous Version:    01  02  03  04  05  06  07  08  09  10  11  12  13  14  15  16  17  18  19  20  21  22  23  24  25  26  27  28  29  30  
   31  32  33  34  35  36  37  38  39  40  41  42  43  44  45  46  47  48  49  50  51  52  53  54  55  56  57  58  59  60  

[Printable]
812
ASUS44 KFWD 202215
RWRTX
NORTH TEXAS HOURLY WEATHER ROUNDUP
NATIONAL WEATHER SERVICE FORT WORTH TX
400 PM CST THU NOV 20 2014

NOTE: "FAIR" INDICATES FEW OR NO CLOUDS BELOW 12,000 FEET WITH NO
SIGNIFICANT WEATHER AND/OR OBSTRUCTIONS TO VISIBILITY.

TXZ118-119-202300-
DALLAS/FORT WORTH METROPLEX

CITY           SKY/WX    TMP DP  RH WIND       PRES   REMARKS
DFW AIRPORT    MOSUNNY   70  47  43 S15       29.98F
DALLAS LOVE    MOSUNNY   71  49  45 S12       29.98F
FTW MEACHAM    SUNNY     73  46  38 S12       29.96F
DAL-EXECUTIVE  MOSUNNY   72  48  42 S10G21    29.97F
FTW-ALLIANCE   MOSUNNY   71  43  36 S12G20    29.97S
FTW-SPINKS     MOSUNNY   73  46  38 S10       29.98
ARLINGTON      SUNNY     74  45  35 S10       29.97F
GRAND PRAIRIE  SUNNY     72  50  46 S9G17     29.99F
MESQUITE       MOSUNNY   70  52  52 S14G21    30.00F
LANCASTER      MOSUNNY   70  50  49 S14       30.00S
$$

TXZ091>094-102>105-117-120-121-131>134-202300-
NORTH CENTRAL TEXAS

CITY           SKY/WX    TMP DP  RH WIND       PRES   REMARKS
SHRMAN/DENISON SUNNY     69  48  47 S10G20    30.00S
GAINESVILLE    SUNNY     68  40  34 SE12G18   30.00S
BOWIE          SUNNY     69  40  35 SE8G16    29.96S
BRIDGEPORT     SUNNY     72  45  37 S10       29.98S
DECATUR        SUNNY     70  39  32 S10       29.97S
DENTON         SUNNY     70  43  37 S13       29.97F
MCKINNEY       SUNNY     70  46  42 S15       29.98F
GREENVILLE     MOSUNNY   70  50  49 S14G20    30.01F
ROCKWALL       MOSUNNY   71  51  48 S14G25    29.99F
TERRELL        PTSUNNY   72  53  51 S12       30.01F
WAXAHACHIE     MOSUNNY   70  51  52 S14       30.00S
CLEBURNE       SUNNY     72  45  37 S14G20    29.98F
GRANBURY       SUNNY     74  46  37 S13       29.97F
$$

TXZ083>090-098>101-113>116-127>130-139>142-154-155-202300-
WESTERN NORTH TEXAS

CITY           SKY/WX    TMP DP  RH WIND       PRES   REMARKS
WICHITA FALLS  SUNNY     69  38  32 S14       29.94F
WF-KICKAPOO    SUNNY     69  37  30 S9        29.95S
VERNON         SUNNY     68  41  37 S6        29.95R
ABILENE        SUNNY     72  41  32 S16       29.94F
ABILENE-DYESS  SUNNY     72  42  33 S14       29.93S
BRECKENRIDGE   SUNNY     73  41  31 S13       29.94F HAZE
GRAHAM         SUNNY     71  46  41 S6        29.94S
MINERAL WELLS  SUNNY     70  43  37 S10       29.95F
STEPHENVILLE   SUNNY     72  45  38 S9G16     29.99F
COMANCHE       SUNNY     74  46  37 SW13      29.96F
BROWNWOOD      SUNNY     73  41  31 SW12      29.95F
COLEMAN        SUNNY     73  46  37 SW12      29.95F
BRADY          SUNNY     73  43  33 S12       29.96F
$$

TXZ143>147-156>162-174-175-202300-
CENTRAL TEXAS

CITY           SKY/WX    TMP DP  RH WIND       PRES   REMARKS
WACO           SUNNY     69  56  62 S16       29.99F
WACO-TSTC      SUNNY     72  57  60 S16       30.00F
WACO-MCGREGOR  SUNNY     70  55  60 S21G26    30.00F
HILLSBORO      MOSUNNY   72  54  54 S13G23    29.99F
CORSICANA      MOSUNNY   71  55  56 S14       30.02F
MEXIA          PTSUNNY   70  57  64 S9        30.02F
HEARNE         LGT RAIN  67  60  76 SE9       30.04R
CAMERON        CLOUDY    68  62  80 S6        30.03S
TEMPLE         PTSUNNY   68  55  64 S15       30.00S
KILLEEN        MOSUNNY   69  58  67 S18       29.99F
KILLEEN-SKYLRK MOSUNNY   70  55  60 S15G25    29.97F
FORT HOOD      SUNNY     72  57  59 S13G22    29.99S
GATESVILLE     MOSUNNY   73  55  53 S10G18    30.00S
HAMILTON       PTSUNNY   72  49  43 S13G22    29.98F
LAMPASAS       MOSUNNY   72  57  60 S18G24    29.97F
$$

TXZ095>097-106>112-122>126-135>138-148>153-164>167-202300-
EAST TEXAS

CITY           SKY/WX    TMP DP  RH WIND       PRES   REMARKS
PARIS          PTSUNNY   61  48  63 E12       30.05F
SULPHUR SPRNGS PTSUNNY   69  49  49 S12       30.05S
MOUNT PLEASANT PTSUNNY   69  51  52 S12       30.07S
MINEOLA        MOSUNNY   70  52  52 S6        30.05S
TYLER          PTSUNNY   69  54  58 SE13      30.05F
LONGVIEW       MOSUNNY   66  54  65 SE8       30.07F
MARSHALL       MOSUNNY   68  60  74 S3        30.11S
ATHENS         MOSUNNY   68  54  60 S10       30.03F
PALESTINE      PTSUNNY   68  58  68 SE6       30.06S
JACKSONVILLE   PTSUNNY   68  56  65 S7        30.08S
HENDERSON      PTSUNNY   66  55  69 SE5       30.08S
NACOGDOCHES    CLOUDY    68  55  64 SE7       30.08S
LUFKIN         MOSUNNY   73  55  53 SE10      30.07S
$$

SUPPLEMENTAL OBSERVATIONS (CENTRAL)

CITY           SKY/WX    TMP DP  RH WIND       PRES   REMARKS
LAKE TEXOMA      N/A     70  45  40 S10         N/A
CADDO GRASSLND   N/A     70  45  40 S8G16       N/A
PAT MAYSE LAKE   N/A     59  48  67 NE9         N/A
GREENVILLE       N/A     70  50  49 S8G16       N/A
CEDAR HILL       N/A     72  46  40 S8G17       N/A
PALESTINE        N/A     70  55  60 S5          N/A
LAKE LIMESTONE   N/A     68  59  73 S6G14       N/A
MCGREGOR         N/A     70  55  60 S22         N/A
TEMPLE           N/A     70  57  64 S13         N/A
$$

SUPPLEMENTAL OBSERVATIONS (WEST)

CITY           SKY/WX    TMP DP  RH WIND       PRES   REMARKS
MILLERS CREEK    N/A     70  46  43 S10         N/A
POSSUM KINGDOM   N/A     72  43  35 S10         N/A
LBJ GRASSLAND    N/A     72  39  30 S10         N/A
GRANBURY         N/A     73  45  35 S13         N/A
COMANCHE         N/A     73  46  38 SW10        N/A
HAMBY            N/A     72  39  30 SW15        N/A
COLORADO BEND    N/A     72  52  49 S9G18       N/A
$$

SUPPLEMENTAL OBSERVATIONS (EAST)

CITY           SKY/WX    TMP DP  RH WIND       PRES   REMARKS
TEXARKANA        N/A     59  50  72 E3          N/A
LINDEN           N/A     66  54  63 SE3         N/A
CADDO LAKE       N/A     64  55  72 S3          N/A
GILMER           N/A     66  54  63 S7          N/A
HENDERSON        N/A     66  54  63 SE3         N/A
LUFKIN           N/A     70  54  56 MISG        N/A
N SABINE NF      N/A     64  55  72 MISG        N/A
S SABINE NF      N/A     66  54  63 E2          N/A
$$

SUPPLEMENTAL OBSERVATIONS ARE A COLLECTION OF AUTOMATED INSTRUMENTS
THAT ARE MAINTAINED BY A VARIETY OF FEDERAL AND STATE AGENCIES.
CERTAIN ELEMENTS...SUCH AS HUMIDITY VALUES AND SUSTAINED WIND
SPEEDS...MAY BE APPROXIMATED.